Location: Kiel
(54.2838°N, 10.1714°E)
Time: 05:11:54
(UTC+01:00)

ISS - Visible Passes

Search period start: 19 January 2019 00:00
Search period end: 29 January 2019 00:00
Orbit: 404 x 411 km, 51.6° (Epoch: 19 January)

Date Brightness Start Highest point End Pass type
(mag) Time Alt. Az. Time Alt. Az. Time Alt. Az.
24 Jan -1.3 19:23:41 10° SSW 19:24:35 15° SSW 19:24:35 15° SSW visible
25 Jan -1.9 18:32:55 10° S 18:35:11 17° SSE 18:35:26 17° SE visible
25 Jan -0.5 20:08:02 10° WSW 20:08:10 11° WSW 20:08:10 11° WSW visible
26 Jan -1.4 17:42:41 10° SSE 17:44:02 12° SE 17:45:22 10° ESE visible
26 Jan -2.3 19:16:49 10° SW 19:18:57 29° SSW 19:18:57 29° SSW visible
27 Jan -2.4 18:25:44 10° SW 18:28:34 27° SSE 18:29:40 22° ESE visible
27 Jan -0.9 20:01:31 10° WSW 20:02:23 17° WSW 20:02:23 17° WSW visible
28 Jan -1.9 17:34:49 10° SSW 17:37:18 20° SSE 17:39:49 10° E visible
28 Jan -3.1 19:10:11 10° WSW 19:13:04 45° S 19:13:04 45° S visible
